Weather History for SYCJ - April, 2014

Change the Weather History Date:

Monday, April 21, 2014

  Actual Average Record
Temperature  
Mean Temperature 81 °F -  
Max Temperature 89 °F 87 °F - ()
Min Temperature 73 °F 72 °F - ()
Cooling Degree Days 16    
Growing Degree Days 31 (Base 50)    
Moisture  
Dew Point 73 °F    
Average Humidity 80    
Maximum Humidity 94    
Minimum Humidity 46    
Precipitation  
Precipitation 0.02 in 0.36 in - ()
Sea Level Pressure  
Sea Level Pressure 29.89 in    
Wind  
Wind Speed 6 mph ()    
Max Wind Speed 21 mph    
Max Gust Speed -    
Visibility 6.3 miles    
Events Rain    
T = Trace of Precipitation, MM = Missing Value Source: Averaged Metar Reports

Daily Weather History Graph

Daily Weather History Graph

Search for Another Location

Airport or City:

Trip Planner

Search our weather history database for the weather conditions in past years. The results will help you decide how hot, cold, wet, or windy it might be!

Date:

Astronomy

Apr. 21, 2014 Rise Set
Actual Time 5:42 AM GYT 6:00 PM GYT
Civil Twilight 5:21 AM GYT 6:21 PM GYT
Nautical Twilight 4:56 AM GYT 6:46 PM GYT
Astronomical Twilight 4:31 AM GYT 7:11 PM GYT
Moon No Moon Rise 11:19 AM GYT (4/21)
Length of Visible Light 13h 00m
Length of Day
12h 17m
Waning Gibbous, 58% of the Moon is Illuminated
Apr 21
Waning Gibbous
Apr 22
Last Quarter
Apr 29
New
May 6
First Quarter
May 14
Full

Hourly Weather History & Observations

Time (GYT) Temp. Heat Index Dew Point Humidity Pressure Visibility Wind Dir Wind Speed Gust Speed Precip Events Conditions
12:00 AM 77.0 °F - 73.4 °F 89% 29.92 in 6.2 mi Variable 2.3 mph - N/A   Scattered Clouds
1:00 AM 77.0 °F - 73.4 °F 89% 29.89 in 6.2 mi Calm Calm - N/A   Scattered Clouds
2:00 AM 76 °F - 74 °F 91% 29.89 in 6 mi Calm Calm - - Rain Light Rain Showers
2:00 AM 75.2 °F - 73.4 °F 94% 29.89 in 5.6 mi Calm Calm - N/A Rain Light Rain Showers
3:00 AM 75.2 °F - 73.4 °F 94% 29.86 in 5.6 mi Calm Calm - N/A   Mostly Cloudy
4:00 AM 75.2 °F - 73.4 °F 94% 29.86 in 6.2 mi East 6.9 mph - N/A   Mostly Cloudy
5:00 AM 76 °F - 74 °F 91% 29.90 in 6 mi East 6.7 mph - -   Haze
5:00 AM 77.0 °F - 73.4 °F 89% 29.89 in 6.2 mi East 6.9 mph - N/A   Mostly Cloudy
6:00 AM 77.0 °F - 73.4 °F 89% 29.92 in 6.2 mi NE 4.6 mph - N/A   Scattered Clouds
7:00 AM 78.8 °F - 75.2 °F 89% 29.92 in 6.2 mi East 6.9 mph - N/A   Partly Cloudy
8:00 AM 82 °F - 75 °F 75% 29.94 in 7 mi East 11.2 mph - -   Haze
8:00 AM 82.4 °F 89.5 °F 75.2 °F 79% 29.95 in 6.2 mi East 11.5 mph - N/A   Scattered Clouds
9:00 AM 82.4 °F 89.5 °F 75.2 °F 79% 29.95 in 6.2 mi East 12.7 mph - N/A   Unknown
10:00 AM 86.0 °F 93.4 °F 73.4 °F 66% 29.95 in 6.2 mi East 11.5 mph - N/A   Mostly Cloudy
11:00 AM 86 °F - 72 °F 56% 29.94 in 7 mi East 17.9 mph - -   Haze
11:00 AM 86.0 °F 93.4 °F 73.4 °F 66% 29.92 in 6.2 mi East 18.4 mph - N/A   Scattered Clouds
12:00 PM 87.8 °F 95.6 °F 73.4 °F 62% 29.92 in 6.2 mi East 16.1 mph - N/A   Scattered Clouds
1:00 PM 87.8 °F 93.8 °F 71.6 °F 58% 29.89 in 6.2 mi ENE 16.1 mph - N/A   Scattered Clouds
2:00 PM 89 °F - 71 °F 46% 29.86 in 7 mi ENE 15.7 mph - -   Haze
2:00 PM 87.8 °F 93.8 °F 71.6 °F 58% 29.86 in 6.2 mi ENE 20.7 mph - N/A   Scattered Clouds
4:00 PM 84.2 °F 90.9 °F 73.4 °F 70% 29.83 in 6.2 mi East 16.1 mph - N/A   Mostly Cloudy
5:00 PM 82 °F - 73 °F 69% 29.83 in 8 mi ENE 13.4 mph - -   Haze
5:00 PM 82.4 °F 88.2 °F 73.4 °F 74% 29.83 in 6.2 mi ENE 13.8 mph - N/A   Mostly Cloudy
6:00 PM 80.6 °F 85.4 °F 73.4 °F 79% 29.83 in 6.2 mi ENE 9.2 mph - N/A   Mostly Cloudy
7:00 PM 78.8 °F - 73.4 °F 83% 29.86 in 6.2 mi ENE 4.6 mph - N/A   Scattered Clouds
8:00 PM 76 °F - 73 °F 89% 29.88 in 7 mi ENE 4.5 mph - -   Haze
8:00 PM 77.0 °F - 73.4 °F 89% 29.86 in 6.2 mi ENE 4.6 mph - N/A   Scattered Clouds
9:00 PM 75.2 °F - 73.4 °F 94% 29.89 in 6.2 mi ENE 4.6 mph - N/A   Scattered Clouds
10:00 PM 75.2 °F - 73.4 °F 94% 29.92 in - NE 4.6 mph - N/A   Clear
11:00 PM 75 °F - 73 °F 93% 29.91 in 7 mi 2.2 mph - -   Haze
11:00 PM 75.2 °F - 73.4 °F 94% 29.92 in 6.2 mi Variable 2.3 mph - N/A   Scattered Clouds